EW7736 Weather Reports


Display with metric or nautical units.
time (UTC)temp
F
wind
direction
speed
MPH
gust
MPH
rain 1hr
in
rain 24hr
in
rain mn
in
humidity
%
barometer
mb
20240623183125 79 77 4.0 12.0 0.00 0.02 0.02 85 1007.0
20240623182147 78 72 4.0 12.0 0.00 0.02 0.02 86 1007.0
20240623181151 77 27 5.0 21.0 0.05 0.02 0.02 86 1007.3
20240623175030 83 79 5.0 14.0 0.00 0.00 0.00 71 1007.1
20240623174035 83 95 6.0 14.0 0.00 0.00 0.00 71 1007.2
20240623173032 83 66 5.0 14.0 0.00 0.00 0.00 69 1007.3
20240623171958 82 33 5.0 14.0 0.00 0.00 0.00 71 1007.3
20240623170939 82 58 4.0 16.0 0.00 0.00 0.00 72 1007.5
20240623165938 81 340 6.0 16.0 0.00 0.00 0.00 72 1007.5
20240623164917 81 58 5.0 13.0 0.00 0.00 0.00 71 1007.5
20240623162818 83 27 5.0 15.0 0.00 0.00 0.00 70 1007.5
20240623161823 82 56 4.0 15.0 0.00 0.00 0.00 72 1007.7
20240623153414 82 35 6.0 20.0 0.00 0.00 0.00 69 1007.8
20240623152343 82 68 6.0 20.0 0.00 0.00 0.00 69 1008.1
20240623151331 82 36 7.0 15.0 0.00 0.00 0.00 69 1008.2
20240623150309 82 29 5.0 15.0 0.00 0.00 0.00 70 1008.3
20240623145331 82 41 5.0 15.0 0.00 0.00 0.00 70 1008.4
20240623144301 82 31 5.0 15.0 0.00 0.00 0.00 70 1008.6
20240623143324 81 29 6.0 15.0 0.00 0.00 0.00 71 1008.8
20240623142315 81 18 5.0 19.0 0.00 0.00 0.00 72 1009.0
20240623140148 81 102 4.0 10.0 0.00 0.00 0.00 72 1009.2
20240623135149 81 30 4.0 10.0 0.00 0.00 0.00 72 1009.1
20240623134211 81 32 3.0 10.0 0.00 0.00 0.00 73 1009.2
20240623133150 80 33 3.0 8.0 0.00 0.00 0.00 76 1009.3
20240623132143 80 49 4.0 13.0 0.00 0.00 0.00 77 1009.4
20240623130049 79 59 3.0 11.0 0.00 0.00 0.00 78 1009.4
20240623125043 79 58 4.0 11.0 0.00 0.00 0.00 78 1009.3
20240623124107 78 48 3.0 9.0 0.00 0.00 0.00 79 1009.3
20240623123047 78 41 3.0 9.0 0.00 0.00 0.00 79 1009.4
20240623122050 78 39 2.0 6.0 0.00 0.00 0.00 80 1009.4
20240623121050 78 38 3.0 7.0 0.00 0.00 0.00 79 1009.4
20240623120035 77 35 2.0 9.0 0.00 0.00 0.00 80 1009.4
20240623115050 77 34 4.0 9.0 0.00 0.00 0.00 80 1009.5
20240623112922 77 44 3.0 9.0 0.00 0.00 0.00 80 1009.5
20240623111940 76 41 2.0 7.0 0.00 0.00 0.00 81 1009.5
20240623110943 76 44 3.0 7.0 0.00 0.00 0.00 82 1009.6
20240623105935 76 24 3.0 7.0 0.00 0.00 0.00 82 1009.6
20240623104943 76 37 3.0 6.0 0.00 0.00 0.00 82 1009.6
20240623103941 76 34 2.0 6.0 0.00 0.00 0.00 82 1009.6
20240623102945 76 23 2.0 6.0 0.00 0.00 0.00 82 1009.7
20240623101923 76 46 2.0 6.0 0.00 0.00 0.00 82 1009.7
20240623100931 76 39 3.0 6.0 0.00 0.00 0.00 82 1009.6
20240623095908 76 35 2.0 6.0 0.00 0.00 0.00 82 1009.6
20240623093833 76 33 2.0 6.0 0.00 0.00 0.00 82 1009.7
20240623092824 76 44 2.0 7.0 0.00 0.00 0.00 81 1009.7
20240623091832 76 39 2.0 7.0 0.00 0.00 0.00 81 1009.9
20240623090801 76 44 3.0 7.0 0.00 0.00 0.00 81 1010.0
20240623084620 76 38 2.0 5.0 0.00 0.00 0.00 81 1010.2
20240623082520 76 50 2.0 6.0 0.00 0.00 0.00 80 1010.4
20240623081449 76 42 1.0 5.0 0.00 0.00 0.00 80 1010.4
20240623080455 77 34 1.0 3.0 0.00 0.00 0.00 79 1010.5
20240623075434 77 34 2.0 5.0 0.00 0.00 0.00 79 1010.7
20240623074443 77 41 1.0 5.0 0.00 0.00 0.00 78 1010.8
20240623073506 77 46 1.0 5.0 0.00 0.00 0.00 78 1010.8
20240623072505 77 39 1.0 6.0 0.00 0.00 0.00 77 1010.9
20240623071453 78 45 2.0 6.0 0.00 0.00 0.00 76 1011.0
20240623070500 78 37 2.0 5.0 0.00 0.00 0.00 76 1011.0
20240623065502 78 23 3.0 6.0 0.00 0.00 0.00 76 1011.1
20240623063408 78 37 3.0 6.0 0.00 0.00 0.00 75 1011.3
20240623062427 78 21 2.0 4.0 0.00 0.00 0.00 75 1011.2
20240623061445 78 44 3.0 5.0 0.00 0.00 0.00 75 1011.4
20240623051936 79 39 2.0 5.0 0.00 0.00 0.00 73 1011.9
20240623050903 79 39 2.0 5.0 0.00 0.00 0.00 73 1012.1
20240623045924 79 46 1.0 6.0 0.00 0.00 0.00 72 1012.3
20240623042642 80 50 2.0 4.0 0.00 0.00 0.00 72 1012.5
20240623041635 80 45 2.0 4.0 0.00 0.00 0.00 71 1012.4
20240623040648 80 44 2.0 4.0 0.00 0.00 0.00 71 1012.3
20240623035635 80 40 2.0 4.0 0.00 0.00 0.00 71 1012.4
20240623034638 80 49 1.0 3.0 0.00 0.00 0.00 72 1012.4
20240623033632 80 50 1.0 2.0 0.00 0.00 0.00 71 1012.6
20240623032608 80 39 0.0 1.0 0.00 0.00 0.00 72 1012.5
20240623031621 80 38 0.0 2.0 0.00 0.00 0.00 71 1012.6
20240623030627 80 40 0.0 2.0 0.00 0.00 0.00 71 1012.6
20240623025648 80 48 0.0 2.0 0.00 0.00 0.00 70 1012.6
20240623024657 80 46 0.0 1.0 0.00 0.00 0.00 70 1012.7
20240623023629 81 46 0.0 1.0 0.00 0.00 0.00 70 1012.8
20240623022645 81 46 0.0 1.0 0.00 0.00 0.00 69 1012.8
20240623021637 81 46 0.0 0.0 0.00 0.00 0.00 69 1013.0
20240623020632 82 46 0.0 1.0 0.00 0.00 0.00 68 1012.9
20240623015610 82 41 0.0 2.0 0.00 0.00 0.00 67 1013.0
20240623014617 82 40 0.0 2.0 0.00 0.00 0.00 67 1013.0
20240623013554 82 54 0.0 1.0 0.00 0.00 0.00 67 1013.0
20240623012529 83 56 0.0 1.0 0.00 0.00 0.00 66 1013.1
20240623011533 83 56 0.0 1.0 0.00 0.00 0.00 65 1013.2
20240623010540 84 56 0.0 1.0 0.00 0.00 0.00 65 1013.3
20240623005548 84 56 0.0 1.0 0.00 0.00 0.00 63 1013.3
20240623004536 85 56 0.0 0.0 0.00 0.00 0.00 62 1013.3
20240623003559 85 56 0.0 0.0 0.00 0.00 0.00 61 1013.2
20240623002547 86 56 0.0 0.0 0.00 0.00 0.00 59 1013.3
20240623001609 87 56 1.0 4.0 0.00 0.00 0.00 58 1013.2
20240622235432 87 46 1.0 1.0 0.00 0.00 0.00 57 1013.3
20240622234100 88 42 0.0 3.0 0.00 0.00 0.00 56 1013.5
20240622233048 88 86 1.0 3.0 0.00 0.00 0.00 56 1013.5
20240622232110 88 53 1.0 4.0 0.00 0.00 0.00 55 1013.5
20240622231122 88 49 1.0 4.0 0.00 0.00 0.00 55 1013.5
20240622230114 88 50 1.0 4.0 0.00 0.00 0.00 55 1013.5
20240622225043 89 57 2.0 5.0 0.00 0.00 0.00 54 1013.6
20240622224051 89 56 2.0 7.0 0.00 0.00 0.00 54 1013.6
20240622223116 89 104 2.0 7.0 0.00 0.00 0.00 54 1013.6
20240622222102 89 50 2.0 6.0 0.00 0.00 0.00 54 1013.6
20240622221111 89 84 2.0 7.0 0.00 0.00 0.00 53 1013.7
20240622220040 90 80 2.0 7.0 0.00 0.00 0.00 55 1013.7
20240622215032 90 86 2.0 9.0 0.00 0.00 0.00 53 1013.8
20240622214026 90 83 3.0 9.0 0.00 0.00 0.00 56 1013.9
20240622213042 90 34 2.0 6.0 0.00 0.00 0.00 53 1014.0
20240622212038 90 94 3.0 8.0 0.00 0.00 0.00 53 1014.2
20240622204651 90 49 4.0 10.0 0.00 0.00 0.00 50 1014.6
20240622203637 91 47 3.0 10.0 0.00 0.00 0.00 51 1014.7
20240622201501 90 84 3.0 8.0 0.00 0.00 0.00 51 1014.9
20240622200518 91 93 3.0 8.0 0.00 0.00 0.00 51 1014.9
20240622195454 91 84 2.0 9.0 0.00 0.00 0.00 52 1015.0
20240622194439 91 34 3.0 9.0 0.00 0.00 0.00 51 1015.1
20240622193407 89 44 2.0 6.0 0.00 0.00 0.00 54 1015.3
20240622192430 89 44 2.0 6.0 0.00 0.00 0.00 53 1015.4
20240622191408 90 46 2.0 8.0 0.00 0.00 0.00 54 1015.5
20240622190350 91 91 3.0 8.0 0.00 0.00 0.00 51 1015.5
20240622185320 91 18 2.0 7.0 0.00 0.00 0.00 51 1015.5
20240622184251 90 52 2.0 6.0 0.00 0.00 0.00 53 1015.7